This is the latest recevied weather packets stored in our database for station/object DL3NDS-WX. If no packets are shown the sender has not sent any weather packets the latest 1 day(s).
| Time | Temp. | Humidity | Pressure | Rain* | Wind** | Luminosity | Snow |
|---|---|---|---|---|---|---|---|
| 1777957086 | 12.22° C | 86% | 1011 hPa | 0 mm | 0 m/s | 98 W/m² | - |
| 1777957025 | 12.22° C | 86% | 1011 hPa | 0 mm | 0.45 m/s, 325° | 69 W/m² | - |
| 1777956963 | 12.22° C | 86% | 1010.9 hPa | 0 mm | 0 m/s | 65 W/m² | - |
| 1777956907 | 12.22° C | 86% | 1010.9 hPa | 0 mm | 0 m/s | 60 W/m² | - |
| 1777956844 | 12.22° C | 86% | 1010.9 hPa | 0 mm | 0 m/s | 56 W/m² | - |
| 1777956784 | 12.22° C | 86% | 1010.9 hPa | 0 mm | 0.45 m/s, 326° | 51 W/m² | - |
| 1777956716 | 12.22° C | 86% | 1010.9 hPa | 0 mm | 0.89 m/s, 326° | 47 W/m² | - |
| 1777956654 | 12.22° C | 86% | 1010.9 hPa | 0 mm | 0.89 m/s, 326° | 46 W/m² | - |
| 1777956593 | 12.22° C | 86% | 1010.9 hPa | 0 mm | 0.89 m/s, 320° | 46 W/m² | - |
| 1777956532 | 12.22° C | 86% | 1010.8 hPa | 0 mm | 0.45 m/s, 337° | 42 W/m² | - |
| 1777956470 | 12.22° C | 86% | 1010.9 hPa | 0 mm | 0.89 m/s, 320° | 40 W/m² | - |
| 1777956410 | 12.22° C | 86% | 1010.8 hPa | 0 mm | 0.89 m/s, 320° | 37 W/m² | - |
| 1777956348 | 12.22° C | 86% | 1010.9 hPa | 0 mm | 0.89 m/s, 326° | 35 W/m² | - |
| 1777956286 | 12.22° C | 86% | 1010.9 hPa | 0 mm | 0.89 m/s, 328° | 35 W/m² | - |
| 1777956226 | 12.22° C | 86% | 1010.8 hPa | 0 mm | 0.45 m/s, 314° | 33 W/m² | - |
| 1777956166 | 12.22° C | 86% | 1010.9 hPa | 0 mm | 0 m/s | 33 W/m² | - |
| 1777956103 | 12.22° C | 86% | 1010.9 hPa | 0 mm | 0.89 m/s, 322° | 30 W/m² | - |
| 1777956042 | 12.22° C | 86% | 1010.8 hPa | 0 mm | 1.34 m/s, 324° | 30 W/m² | - |
| 1777955976 | 12.22° C | 86% | 1011 hPa | 0 mm | 0.89 m/s, 320° | 28 W/m² | - |
| 1777955914 | 12.22° C | 86% | 1010.9 hPa | 0 mm | 0.89 m/s, 321° | 26 W/m² | - |
| 1777955853 | 12.22° C | 85% | 1011 hPa | 0 mm | 1.34 m/s, 326° | 26 W/m² | - |
| 1777955792 | 12.22° C | 85% | 1010.9 hPa | 0 mm | 0.89 m/s, 322° | 25 W/m² | - |
| 1777955731 | 12.22° C | 85% | 1011 hPa | 0 mm | 0.89 m/s, 323° | 23 W/m² | - |
| 1777955669 | 12.22° C | 85% | 1010.9 hPa | 0 mm | 0.89 m/s, 324° | 21 W/m² | - |
| 1777955612 | 12.22° C | 85% | 1010.9 hPa | 0 mm | 0.89 m/s, 324° | 19 W/m² | - |
* Rain latest hour (hover to see other rain measurements)
** Current wind speed in m/s (hover to see current wind gust speed)